Hourly Data Report for October 03, 2017

All times are specified in Local Standard Time (LST). Add 1 hour to adjust for Daylight Saving Time where and when it is observed.

QUALICUM BEACH AIRPORT
BRITISH COLUMBIA

49°20'14.000" N
124°23'38.000" W
58.20 m
1026562
71766
VOQ

Download Data

Hourly Data (October 2017)
Hourly Data Report for October 3, 2017
Temp Definition
°C
Dew Point Temp Definition
°C
Rel Hum Definition
%
Wind Dir Definition
10's deg

Wind Spd Definition
km/h
Visibility Definition
km
Stn Press Definition
kPa
Hmdx Definition


Wind Chill Definition


Weather Definition


TIME
00:00 6.1 3.4 83 26 3   101.87     LegendNANA
01:00 6.1 3.3 82 26 4   101.90     LegendNANA
02:00 5.6 3.1 84 25 4   101.92     LegendNANA
03:00 4.4 2.6 88 24 2   101.94     LegendNANA
04:00 4.6 2.7 87 25 4   101.97     LegendNANA
05:00 3.9 2.0 87 25 2   101.99     LegendNANA
06:00 4.2 2.4 88 26 3   101.99     LegendNANA
07:00 4.6 2.0 83 24 2   101.97     LegendNANA
08:00 7.5 4.2 79 27 2   101.99     LegendNANA
09:00 12.8 6.0 63 33 7   102.07     LegendNANA
10:00 13.5 4.4 54 32 7   102.07     LegendNANA
11:00 15.6 1.7 39 32 8   102.01     LegendNANA
12:00 15.9 4.5 47 1 6   101.97     LegendNANA
13:00 16.2 2.7 40 36 8   101.90     LegendNANA
14:00 16.2 2.0 38 36 7   101.87     LegendNANA
15:00 16.1 0.9 36 33 8   101.84     LegendNANA
16:00 16.9 0.9 34 33 9   101.78     LegendNANA
17:00 16.4 -0.2 32 31 7   101.73     LegendNANA
18:00 11.9 3.0 55 26 3   101.71     LegendNANA
19:00 9.7 3.5 65 26 3   101.71     LegendNANA
20:00 8.3 4.4 76 26 3   101.68     LegendNANA
21:00 6.6 3.7 81   0   101.69     LegendNANA
22:00 6.2 3.4 82 27 2   101.67     LegendNANA
23:00 4.7 2.9 88 24 2   101.69     LegendNANA

Notes on Data Quality.

Legend

  • E = Estimated
  • M = Missing
  • NA = Not Available
  • ‡ = Partner data that is not subject to review by the National Climate Archives
Date modified: